| time (UTC) | temp F | wind direction | speed MPH | gust MPH | rain 1hr in | rain 24hr in | rain mn in | humidity % | barometer mb |
| 20260504050502 | 54 | 219 | 4.0 | 8.0 | 0.00 | 0.00 | 0.00 | 54 | 1002.1 |
| 20260504050003 | 54 | 223 | 4.0 | 7.0 | 0.00 | 0.00 | 0.00 | 53 | 1002.3 |
| 20260504045503 | 54 | 217 | 2.0 | 6.0 | 0.00 | 0.00 | 0.00 | 53 | 1002.3 |
| 20260504045003 | 54 | 217 | 3.0 | 6.0 | 0.00 | 0.00 | 0.00 | 53 | 1002.4 |
| 20260504044503 | 54 | 233 | 3.0 | 6.0 | 0.00 | 0.00 | 0.00 | 53 | 1002.4 |
| 20260504044002 | 54 | 240 | 2.0 | 7.0 | 0.00 | 0.00 | 0.00 | 52 | 1002.4 |
| 20260504043503 | 54 | 217 | 3.0 | 7.0 | 0.00 | 0.00 | 0.00 | 52 | 1002.6 |
| 20260504043003 | 54 | 224 | 3.0 | 5.0 | 0.00 | 0.00 | 0.00 | 52 | 1002.6 |
| 20260504042503 | 54 | 224 | 2.0 | 7.0 | 0.00 | 0.00 | 0.00 | 52 | 1002.5 |
| 20260504042003 | 54 | 224 | 3.0 | 7.0 | 0.00 | 0.00 | 0.00 | 51 | 1002.7 |
| 20260504041503 | 54 | 216 | 3.0 | 7.0 | 0.00 | 0.00 | 0.00 | 51 | 1002.6 |
| 20260504041003 | 54 | 233 | 3.0 | 6.0 | 0.00 | 0.00 | 0.00 | 50 | 1002.9 |
| 20260504040502 | 54 | 234 | 3.0 | 6.0 | 0.00 | 0.00 | 0.00 | 49 | 1002.9 |
| 20260504040003 | 54 | 234 | 2.0 | 5.0 | 0.00 | 0.00 | 0.00 | 49 | 1003.0 |
| 20260504035502 | 54 | 234 | 3.0 | 6.0 | 0.00 | 0.00 | 0.00 | 49 | 1003.2 |
| 20260504035003 | 54 | 234 | 3.0 | 6.0 | 0.00 | 0.00 | 0.00 | 48 | 1003.4 |
| 20260504034503 | 54 | 242 | 2.0 | 6.0 | 0.00 | 0.00 | 0.00 | 48 | 1003.4 |
| 20260504034003 | 54 | 264 | 1.0 | 5.0 | 0.00 | 0.00 | 0.00 | 49 | 1003.5 |
| 20260504033503 | 54 | 264 | 2.0 | 5.0 | 0.00 | 0.00 | 0.00 | 49 | 1003.6 |
| 20260504033003 | 54 | 264 | 2.0 | 5.0 | 0.00 | 0.00 | 0.00 | 49 | 1003.6 |
| 20260504032503 | 54 | 264 | 2.0 | 4.0 | 0.00 | 0.00 | 0.00 | 50 | 1003.6 |
| 20260504032002 | 54 | 264 | 1.0 | 4.0 | 0.00 | 0.00 | 0.00 | 49 | 1003.8 |
| 20260504031503 | 54 | 264 | 1.0 | 4.0 | 0.00 | 0.00 | 0.00 | 50 | 1003.9 |
| 20260504031002 | 55 | 264 | 1.0 | 3.0 | 0.00 | 0.00 | 0.00 | 49 | 1004.0 |
| 20260504030503 | 55 | 264 | 0.0 | 3.0 | 0.00 | 0.00 | 0.00 | 49 | 1004.1 |
| 20260504030003 | 55 | 264 | 1.0 | 4.0 | 0.00 | 0.00 | 0.00 | 49 | 1004.0 |
| 20260504025503 | 55 | 264 | 1.0 | 4.0 | 0.00 | 0.00 | 0.00 | 49 | 1004.0 |
| 20260504025003 | 56 | 264 | 1.0 | 3.0 | 0.00 | 0.00 | 0.00 | 49 | 1003.9 |
| 20260504024502 | 56 | 264 | 1.0 | 3.0 | 0.00 | 0.00 | 0.00 | 47 | 1004.1 |
| 20260504024003 | 57 | 264 | 1.0 | 3.0 | 0.00 | 0.00 | 0.00 | 47 | 1004.1 |
| 20260504023502 | 57 | 264 | 0.0 | 3.0 | 0.00 | 0.00 | 0.00 | 46 | 1004.2 |
| 20260504023003 | 57 | 264 | 1.0 | 4.0 | 0.00 | 0.00 | 0.00 | 45 | 1004.3 |
| 20260504022503 | 58 | 264 | 1.0 | 4.0 | 0.00 | 0.00 | 0.00 | 44 | 1004.2 |
| 20260504022003 | 58 | 264 | 1.0 | 4.0 | 0.00 | 0.00 | 0.00 | 44 | 1004.3 |
| 20260504021503 | 59 | 264 | 1.0 | 3.0 | 0.00 | 0.00 | 0.00 | 43 | 1004.3 |
| 20260504021002 | 59 | 264 | 1.0 | 3.0 | 0.00 | 0.00 | 0.00 | 42 | 1004.3 |
| 20260504020503 | 60 | 264 | 0.0 | 4.0 | 0.00 | 0.00 | 0.00 | 41 | 1004.3 |
| 20260504020002 | 60 | 264 | 2.0 | 4.0 | 0.00 | 0.00 | 0.00 | 41 | 1004.4 |
| 20260504015503 | 61 | 264 | 1.0 | 4.0 | 0.00 | 0.00 | 0.00 | 40 | 1004.4 |
| 20260504015003 | 61 | 264 | 1.0 | 2.0 | 0.00 | 0.00 | 0.00 | 40 | 1004.5 |
| 20260504014503 | 62 | 264 | 1.0 | 3.0 | 0.00 | 0.00 | 0.00 | 40 | 1004.5 |
| 20260504014003 | 62 | 264 | 1.0 | 5.0 | 0.00 | 0.00 | 0.00 | 38 | 1004.5 |
| 20260504013503 | 63 | 264 | 1.0 | 5.0 | 0.00 | 0.00 | 0.00 | 37 | 1004.6 |
| 20260504013003 | 63 | 264 | 1.0 | 3.0 | 0.00 | 0.00 | 0.00 | 36 | 1004.6 |
| 20260504012503 | 63 | 264 | 1.0 | 3.0 | 0.00 | 0.00 | 0.00 | 36 | 1004.6 |
| 20260504012003 | 64 | 264 | 2.0 | 5.0 | 0.00 | 0.00 | 0.00 | 35 | 1004.6 |
| 20260504011502 | 64 | 264 | 0.0 | 5.0 | 0.00 | 0.00 | 0.00 | 35 | 1004.7 |
| 20260504011003 | 65 | 264 | 1.0 | 6.0 | 0.00 | 0.00 | 0.00 | 34 | 1004.6 |
| 20260504010503 | 66 | 264 | 2.0 | 6.0 | 0.00 | 0.00 | 0.00 | 34 | 1004.7 |
| 20260504010003 | 66 | 265 | 2.0 | 6.0 | 0.00 | 0.00 | 0.00 | 33 | 1004.7 |
| 20260504005503 | 67 | 269 | 2.0 | 8.0 | 0.00 | 0.00 | 0.00 | 33 | 1004.7 |
| 20260504005004 | 67 | 240 | 2.0 | 8.0 | 0.00 | 0.00 | 0.00 | 32 | 1004.8 |
| 20260504004503 | 67 | 237 | 2.0 | 6.0 | 0.00 | 0.00 | 0.00 | 32 | 1004.7 |
| 20260504004002 | 68 | 237 | 3.0 | 10.0 | 0.00 | 0.00 | 0.00 | 31 | 1004.8 |
| 20260504003503 | 68 | 242 | 4.0 | 11.0 | 0.00 | 0.00 | 0.00 | 31 | 1004.8 |
| 20260504003003 | 68 | 250 | 4.0 | 11.0 | 0.00 | 0.00 | 0.00 | 31 | 1004.9 |
| 20260504002503 | 68 | 243 | 4.0 | 9.0 | 0.00 | 0.00 | 0.00 | 30 | 1004.8 |
| 20260504002003 | 69 | 245 | 4.0 | 11.0 | 0.00 | 0.00 | 0.00 | 31 | 1004.9 |
| 20260504001503 | 69 | 249 | 3.0 | 11.0 | 0.00 | 0.00 | 0.00 | 30 | 1004.9 |
| 20260504001003 | 69 | 249 | 5.0 | 10.0 | 0.00 | 0.00 | 0.00 | 29 | 1005.0 |
| 20260504000502 | 69 | 230 | 4.0 | 10.0 | 0.00 | 0.00 | 0.00 | 29 | 1005.1 |
| 20260504000003 | 69 | 249 | 4.0 | 11.0 | 0.00 | 0.00 | 0.00 | 29 | 1005.1 |
| 20260503235502 | 69 | 230 | 2.0 | 12.0 | 0.00 | 0.00 | 0.00 | 31 | 1005.1 |
| 20260503235003 | 69 | 239 | 5.0 | 14.0 | 0.00 | 0.00 | 0.00 | 29 | 1005.1 |
| 20260503234502 | 70 | 241 | 5.0 | 14.0 | 0.00 | 0.00 | 0.00 | 30 | 1005.2 |
| 20260503234003 | 70 | 237 | 5.0 | 9.0 | 0.00 | 0.00 | 0.00 | 28 | 1005.3 |
| 20260503233503 | 70 | 257 | 4.0 | 11.0 | 0.00 | 0.00 | 0.00 | 31 | 1005.4 |
| 20260503233003 | 70 | 245 | 4.0 | 11.0 | 0.00 | 0.00 | 0.00 | 29 | 1005.5 |
| 20260503232503 | 70 | 248 | 6.0 | 11.0 | 0.00 | 0.00 | 0.00 | 28 | 1005.5 |
| 20260503232002 | 70 | 243 | 3.0 | 11.0 | 0.00 | 0.00 | 0.00 | 31 | 1005.5 |
| 20260503231503 | 70 | 243 | 5.0 | 11.0 | 0.00 | 0.00 | 0.00 | 27 | 1005.6 |
| 20260503231002 | 70 | 257 | 3.0 | 10.0 | 0.00 | 0.00 | 0.00 | 30 | 1005.7 |
| 20260503230503 | 70 | 243 | 5.0 | 14.0 | 0.00 | 0.00 | 0.00 | 28 | 1005.7 |
| 20260503230003 | 70 | 242 | 5.0 | 14.0 | 0.00 | 0.00 | 0.00 | 31 | 1005.8 |
| 20260503225503 | 70 | 247 | 5.0 | 11.0 | 0.00 | 0.00 | 0.00 | 30 | 1005.7 |
| 20260503225003 | 70 | 227 | 4.0 | 11.0 | 0.00 | 0.00 | 0.00 | 31 | 1005.7 |
| 20260503224502 | 70 | 248 | 4.0 | 15.0 | 0.00 | 0.00 | 0.00 | 31 | 1005.8 |
| 20260503224003 | 71 | 241 | 6.0 | 15.0 | 0.00 | 0.00 | 0.00 | 31 | 1006.0 |
| 20260503223502 | 71 | 257 | 3.0 | 12.0 | 0.00 | 0.00 | 0.00 | 33 | 1006.0 |
| 20260503223003 | 70 | 242 | 3.0 | 12.0 | 0.00 | 0.00 | 0.00 | 34 | 1006.0 |
| 20260503222503 | 71 | 244 | 5.0 | 12.0 | 0.00 | 0.00 | 0.00 | 33 | 1006.0 |
| 20260503222003 | 70 | 233 | 6.0 | 11.0 | 0.00 | 0.00 | 0.00 | 33 | 1006.0 |
| 20260503221503 | 70 | 250 | 4.0 | 10.0 | 0.00 | 0.00 | 0.00 | 35 | 1006.0 |
| 20260503221003 | 70 | 239 | 4.0 | 11.0 | 0.00 | 0.00 | 0.00 | 34 | 1006.0 |
| 20260503220503 | 71 | 237 | 6.0 | 11.0 | 0.00 | 0.00 | 0.00 | 34 | 1006.2 |
| 20260503220002 | 71 | 240 | 4.0 | 10.0 | 0.00 | 0.00 | 0.00 | 35 | 1006.1 |
| 20260503215503 | 70 | 228 | 3.0 | 13.0 | 0.00 | 0.00 | 0.00 | 35 | 1006.2 |
| 20260503215003 | 70 | 262 | 3.0 | 13.0 | 0.00 | 0.00 | 0.00 | 35 | 1006.3 |
| 20260503214503 | 70 | 230 | 6.0 | 12.0 | 0.00 | 0.00 | 0.00 | 36 | 1006.2 |
| 20260503214003 | 70 | 254 | 4.0 | 17.0 | 0.00 | 0.00 | 0.00 | 33 | 1006.4 |
| 20260503213503 | 70 | 249 | 7.0 | 17.0 | 0.00 | 0.00 | 0.00 | 35 | 1006.5 |
| 20260503213003 | 70 | 253 | 4.0 | 11.0 | 0.00 | 0.00 | 0.00 | 36 | 1006.6 |
| 20260503212502 | 70 | 242 | 5.0 | 11.0 | 0.00 | 0.00 | 0.00 | 37 | 1006.6 |
| 20260503212003 | 70 | 270 | 3.0 | 9.0 | 0.00 | 0.00 | 0.00 | 37 | 1006.8 |
| 20260503211502 | 70 | 317 | 1.0 | 8.0 | 0.00 | 0.00 | 0.00 | 40 | 1006.8 |
| 20260503211003 | 70 | 237 | 2.0 | 8.0 | 0.00 | 0.00 | 0.00 | 38 | 1007.0 |
| 20260503210503 | 70 | 277 | 4.0 | 10.0 | 0.00 | 0.00 | 0.00 | 38 | 1007.1 |
| 20260503210003 | 70 | 287 | 3.0 | 10.0 | 0.00 | 0.00 | 0.00 | 37 | 1007.1 |
| 20260503205503 | 70 | 244 | 4.0 | 11.0 | 0.00 | 0.00 | 0.00 | 36 | 1007.1 |
| 20260503205003 | 70 | 240 | 5.0 | 11.0 | 0.00 | 0.00 | 0.00 | 35 | 1007.1 |
| 20260503204503 | 69 | 320 | 2.0 | 18.0 | 0.00 | 0.00 | 0.00 | 39 | 1007.2 |
| 20260503204002 | 69 | 252 | 4.0 | 18.0 | 0.00 | 0.00 | 0.00 | 37 | 1007.3 |
| 20260503203503 | 69 | 249 | 3.0 | 12.0 | 0.00 | 0.00 | 0.00 | 38 | 1007.4 |
| 20260503203002 | 69 | 289 | 5.0 | 12.0 | 0.00 | 0.00 | 0.00 | 38 | 1007.6 |
| 20260503202503 | 69 | 316 | 5.0 | 9.0 | 0.00 | 0.00 | 0.00 | 38 | 1007.6 |
| 20260503202003 | 68 | 330 | 4.0 | 9.0 | 0.00 | 0.00 | 0.00 | 37 | 1007.6 |
| 20260503201503 | 69 | 266 | 3.0 | 9.0 | 0.00 | 0.00 | 0.00 | 40 | 1007.7 |
| 20260503201003 | 68 | 272 | 3.0 | 9.0 | 0.00 | 0.00 | 0.00 | 35 | 1008.0 |
| 20260503200502 | 68 | 314 | 4.0 | 14.0 | 0.00 | 0.00 | 0.00 | 38 | 1008.0 |
| 20260503200003 | 69 | 322 | 5.0 | 14.0 | 0.00 | 0.00 | 0.00 | 37 | 1008.1 |
| 20260503195503 | 68 | 283 | 1.0 | 10.0 | 0.00 | 0.00 | 0.00 | 40 | 1008.2 |
| 20260503195003 | 68 | 330 | 3.0 | 10.0 | 0.00 | 0.00 | 0.00 | 41 | 1008.2 |
| 20260503194503 | 68 | 296 | 3.0 | 8.0 | 0.00 | 0.00 | 0.00 | 40 | 1008.3 |
| 20260503194003 | 68 | 289 | 4.0 | 12.0 | 0.00 | 0.00 | 0.00 | 40 | 1008.3 |
| 20260503193503 | 67 | 309 | 3.0 | 12.0 | 0.00 | 0.00 | 0.00 | 40 | 1008.3 |
| 20260503193003 | 67 | 324 | 5.0 | 9.0 | 0.00 | 0.00 | 0.00 | 38 | 1008.4 |
| 20260503192503 | 67 | 260 | 4.0 | 9.0 | 0.00 | 0.00 | 0.00 | 41 | 1008.3 |
| 20260503192002 | 67 | 259 | 4.0 | 12.0 | 0.00 | 0.00 | 0.00 | 41 | 1008.5 |
| 20260503191503 | 67 | 308 | 4.0 | 12.0 | 0.00 | 0.00 | 0.00 | 40 | 1008.4 |
| 20260503191003 | 67 | 330 | 4.0 | 10.0 | 0.00 | 0.00 | 0.00 | 39 | 1008.6 |
| 20260503190503 | 67 | 316 | 3.0 | 10.0 | 0.00 | 0.00 | 0.00 | 43 | 1008.6 |
| 20260503190003 | 67 | 291 | 3.0 | 10.0 | 0.00 | 0.00 | 0.00 | 41 | 1008.7 |
| 20260503185503 | 67 | 294 | 4.0 | 10.0 | 0.00 | 0.00 | 0.00 | 41 | 1008.8 |
| 20260503185003 | 67 | 295 | 3.0 | 10.0 | 0.00 | 0.00 | 0.00 | 43 | 1008.9 |
| 20260503184503 | 67 | 320 | 5.0 | 14.0 | 0.00 | 0.00 | 0.00 | 40 | 1008.9 |
| 20260503184003 | 67 | 321 | 4.0 | 14.0 | 0.00 | 0.00 | 0.00 | 43 | 1008.9 |
| 20260503183502 | 67 | 303 | 3.0 | 10.0 | 0.00 | 0.00 | 0.00 | 41 | 1009.1 |
| 20260503183003 | 67 | 336 | 4.0 | 10.0 | 0.00 | 0.00 | 0.00 | 42 | 1009.1 |
| 20260503182503 | 66 | 332 | 3.0 | 10.0 | 0.00 | 0.00 | 0.00 | 44 | 1009.0 |
| 20260503182003 | 66 | 261 | 3.0 | 11.0 | 0.00 | 0.00 | 0.00 | 45 | 1009.2 |
| 20260503181504 | 66 | 319 | 4.0 | 13.0 | 0.00 | 0.00 | 0.00 | 42 | 1009.2 |
| 20260503181003 | 66 | 335 | 5.0 | 13.0 | 0.00 | 0.00 | 0.00 | 42 | 1009.2 |
| 20260503180503 | 66 | 323 | 4.0 | 11.0 | 0.00 | 0.00 | 0.00 | 42 | 1009.4 |
| 20260503180004 | 66 | 323 | 4.0 | 11.0 | 0.00 | 0.00 | 0.00 | 43 | 1009.5 |
| 20260503175503 | 66 | 290 | 4.0 | 11.0 | 0.00 | 0.00 | 0.00 | 43 | 1009.6 |
| 20260503175003 | 66 | 290 | 2.0 | 11.0 | 0.00 | 0.00 | 0.00 | 46 | 1009.6 |
| 20260503174503 | 65 | 281 | 3.0 | 12.0 | 0.00 | 0.00 | 0.00 | 44 | 1009.5 |
| 20260503174003 | 65 | 325 | 5.0 | 12.0 | 0.00 | 0.00 | 0.00 | 44 | 1009.6 |
| 20260503173503 | 65 | 317 | 5.0 | 12.0 | 0.00 | 0.00 | 0.00 | 45 | 1009.7 |
| 20260503173002 | 66 | 278 | 4.0 | 9.0 | 0.00 | 0.00 | 0.00 | 47 | 1009.7 |
| 20260503172503 | 65 | 288 | 3.0 | 14.0 | 0.00 | 0.00 | 0.00 | 49 | 1009.8 |
| 20260503172003 | 65 | 313 | 4.0 | 14.0 | 0.00 | 0.00 | 0.00 | 49 | 1009.8 |
| 20260503171503 | 64 | 343 | 5.0 | 11.0 | 0.00 | 0.00 | 0.00 | 49 | 1009.9 |
| 20260503171003 | 64 | 335 | 6.0 | 12.0 | 0.00 | 0.00 | 0.00 | 48 | 1010.0 |
| 20260503170503 | 64 | 315 | 4.0 | 14.0 | 0.00 | 0.00 | 0.00 | 50 | 1010.0 |
| 20260503151002 | 60 | 322 | 3.0 | 9.0 | 0.00 | 0.00 | 0.00 | 59 | 1010.2 |
| 20260503150503 | 60 | 324 | 5.0 | 8.0 | 0.00 | 0.00 | 0.00 | 58 | 1010.3 |
| 20260503131003 | 51 | 339 | 4.0 | 10.0 | 0.00 | 0.00 | 0.00 | 80 | 1010.0 |
| 20260503130502 | 51 | 312 | 3.0 | 6.0 | 0.00 | 0.00 | 0.00 | 81 | 1009.9 |
| 20260503110503 | 46 | 321 | 1.0 | 3.0 | 0.00 | 0.00 | 0.00 | 83 | 1008.6 |
| 20260503090502 | 50 | 330 | 2.0 | 5.0 | 0.00 | 0.00 | 0.00 | 75 | 1007.7 |
| 20260503081503 | 52 | 309 | 3.0 | 9.0 | 0.00 | 0.00 | 0.00 | 71 | 1007.4 |
| 20260503081003 | 52 | 315 | 1.0 | 4.0 | 0.00 | 0.00 | 0.00 | 71 | 1007.4 |
| 20260503080502 | 53 | 315 | 2.0 | 5.0 | 0.00 | 0.00 | 0.00 | 70 | 1007.5 |
| 20260503072503 | 54 | 292 | 2.0 | 6.0 | 0.00 | 0.00 | 0.00 | 68 | 1007.2 |
| 20260503072002 | 54 | 305 | 2.0 | 6.0 | 0.00 | 0.00 | 0.00 | 68 | 1007.1 |
| 20260503071503 | 54 | 302 | 2.0 | 7.0 | 0.00 | 0.00 | 0.00 | 68 | 1007.2 |
| 20260503071003 | 53 | 305 | 1.0 | 7.0 | 0.00 | 0.00 | 0.00 | 68 | 1007.1 |
| 20260503070503 | 53 | 295 | 1.0 | 5.0 | 0.00 | 0.00 | 0.00 | 69 | 1007.1 |